Lake Conroe Weather Center

Moon Phase Calendar



Lake Conroe Water Level
Online Cameras

 


      

Current Conditions in Willis
11/28/2022 3:51:54 PM

73°F
Feels Like 73
Clear
Humidity
56%
Pressure
29.88"
Wind
1 mph (S)
Dew Point
56°F
UV Index
1/10 (Low)
Visibility
6 mi

Hourly Forecast

Date & Time Mon, Nov 28
3:00 PM
Mon, Nov 28
4:00 PM
Mon, Nov 28
5:00 PM
Mon, Nov 28
6:00 PM
Mon, Nov 28
7:00 PM
Mon, Nov 28
8:00 PM
Mon, Nov 28
9:00 PM
Mon, Nov 28
10:00 PM
Mon, Nov 28
11:00 PM
Tue, Nov 29
12:00 AM
Tue, Nov 29
1:00 AM
Tue, Nov 29
2:00 AM
Tue, Nov 29
3:00 AM
Tue, Nov 29
4:00 AM
Tue, Nov 29
5:00 AM
Tue, Nov 29
6:00 AM
Tue, Nov 29
7:00 AM
Tue, Nov 29
8:00 AM
Tue, Nov 29
9:00 AM
Tue, Nov 29
10:00 AM
Tue, Nov 29
11:00 AM
Tue, Nov 29
12:00 PM
Tue, Nov 29
1:00 PM
Tue, Nov 29
2:00 PM
Tue, Nov 29
3:00 PM
Tue, Nov 29
4:00 PM
Tue, Nov 29
5:00 PM
Tue, Nov 29
6:00 PM
Tue, Nov 29
7:00 PM
Tue, Nov 29
8:00 PM
Tue, Nov 29
9:00 PM
Tue, Nov 29
10:00 PM
Tue, Nov 29
11:00 PM
Wed, Nov 30
12:00 AM
Wed, Nov 30
1:00 AM
Wed, Nov 30
2:00 AM
Wed, Nov 30
3:00 AM
Wed, Nov 30
4:00 AM
Wed, Nov 30
5:00 AM
Wed, Nov 30
6:00 AM
Wed, Nov 30
7:00 AM
Wed, Nov 30
8:00 AM
Wed, Nov 30
9:00 AM
Wed, Nov 30
10:00 AM
Wed, Nov 30
11:00 AM
Wed, Nov 30
12:00 PM
Wed, Nov 30
1:00 PM
Wed, Nov 30
2:00 PM
Condition
Clear

Clear

Clear

Clear

Clear

Clear

Clear

Clear

Clear

Clear

Clouds

Clouds

Clouds

Rain

Rain

Clouds

Clouds

Rain

Clouds

Clouds

Rain

Clouds

Clouds

Rain

Rain

Rain

Rain

Rain

Clear

Clear

Clear

Clear

Clear

Clear

Clear

Clear

Clear

Clear

Clear

Clear

Clear

Clear

Clear

Clear

Clear

Clear

Clear

Clear
Temperature 73°F73°F72°F69°F66°F62°F59°F58°F59°F60°F62°F64°F66°F67°F68°F68°F69°F70°F71°F72°F73°F74°F76°F77°F77°F76°F74°F72°F70°F69°F68°F67°F67°F66°F65°F64°F63°F52°F48°F47°F46°F46°F49°F51°F54°F57°F58°F59°F
Feels Like 72°F73°F71°F68°F65°F62°F58°F58°F59°F61°F63°F65°F67°F68°F69°F69°F70°F71°F72°F74°F74°F75°F77°F78°F78°F78°F76°F74°F72°F71°F69°F68°F67°F66°F66°F65°F62°F51°F42°F41°F40°F40°F43°F48°F51°F54°F55°F56°F
Cloudiness 0%0%0%0%0%0%0%0%0%4%80%90%93%95%96%97%86%85%90%92%94%95%99%99%98%93%90%89%0%0%1%0%0%0%0%0%0%0%0%0%0%0%0%0%0%0%0%0%
Visibility 6 mi6 mi6 mi6 mi6 mi6 mi6 mi6 mi6 mi6 mi0 mi0 mi0 mi0 mi6 mi6 mi6 mi6 mi6 mi6 mi6 mi6 mi6 mi6 mi6 mi6 mi6 mi6 mi6 mi6 mi6 mi6 mi6 mi6 mi6 mi6 mi6 mi6 mi6 mi6 mi6 mi6 mi6 mi6 mi6 mi6 mi6 mi6 mi
Precipitation 0%0%0%0%0%0%0%0%0%0%0%0%0%20%32%30%35%22%18%10%23%34%47%70%74%74%74%74%37%25%16%8%3%0%0%0%0%0%0%0%0%0%0%0%0%0%0%0%
Humidity 53%56%57%60%65%71%80%89%95%99%99%99%99%99%97%97%97%96%95%93%91%90%86%83%82%83%89%93%96%96%95%95%95%95%95%95%81%79%75%71%69%66%59%49%43%39%37%36%
Dew Point 55°F56°F56°F54°F54°F53°F52°F55°F58°F59°F62°F64°F65°F66°F66°F67°F68°F69°F69°F70°F70°F70°F71°F71°F71°F71°F70°F70°F69°F68°F67°F66°F65°F64°F63°F63°F57°F46°F40°F38°F36°F35°F35°F33°F32°F32°F32°F32°F
Pressure 29.88"29.88"29.88"29.88"29.88"29.91"29.91"29.88"29.88"29.85"29.85"29.83"29.83"29.8"29.8"29.8"29.8"29.83"29.83"29.83"29.83"29.8"29.77"29.74"29.74"29.74"29.77"29.8"29.83"29.85"29.88"29.88"29.91"29.94"29.97"29.97"30.03"30.09"30.15"30.18"30.24"30.27"30.3"30.33"30.33"30.3"30.27"30.27"
Wind Speed 5.6 mph5.2 mph5.1 mph6.3 mph7.1 mph7.8 mph7.4 mph7.2 mph6.8 mph6.1 mph6.4 mph7.5 mph7.9 mph7.8 mph8.9 mph8.2 mph8.9 mph9.7 mph10 mph9.9 mph9.4 mph9.4 mph9.8 mph10.7 mph10.6 mph9.7 mph7.5 mph6 mph5.2 mph5.1 mph5 mph5.3 mph5.5 mph5.5 mph5.8 mph5.9 mph14.8 mph16.3 mph15.5 mph14.8 mph13.9 mph13.5 mph14.4 mph15 mph14.6 mph14.5 mph13.9 mph13.3 mph
Wind
Direction
173°
S
163°
SSE
152°
SSE
140°
SE
142°
SE
148°
SSE
146°
SE
149°
SSE
154°
SSE
155°
SSE
156°
SSE
155°
SSE
157°
SSE
162°
SSE
177°
S
169°
S
169°
S
184°
S
192°
SSW
198°
SSW
201°
SSW
202°
SSW
203°
SSW
209°
SSW
214°
SW
217°
SW
222°
SW
222°
SW
223°
SW
224°
SW
235°
SW
246°
WSW
256°
WSW
272°
W
295°
WNW
296°
WNW
338°
NNW
352°
N
358°
N

N

N
12°
NNE
16°
NNE
19°
NNE
20°
NNE
20°
NNE
21°
NNE
24°
NNE

Daily Forecast

Date High Low Precip. Humidity
Today
Nov 28

Clear
73 °F
50 °F
0%
52%
Tuesday
Nov 29

Rain
77 °F
60 °F
74%
90%
Wednesday
Nov 30

Clear
66 °F
47 °F
0%
39%
Thursday
Dec 1

Clear
60 °F
42 °F
0%
39%
Friday
Dec 2

Rain
70 °F
54 °F
20%
93%
Saturday
Dec 3

Rain
67 °F
64 °F
60%
92%
Sunday
Dec 4

Clouds
72 °F
63 °F
2%
92%
Monday
Dec 5

Rain
80 °F
70 °F
22%
81%
Tuesday
Dec 6

Rain
74 °F
54 °F
98%
38%
Wednesday
Dec 7

Rain
52 °F
45 °F
95%
90%
Thursday
Dec 8

Rain
45 °F
42 °F
68%
85%
Friday
Dec 9

Clouds
58 °F
44 °F
3%
71%
Saturday
Dec 10

Clouds
65 °F
49 °F
0%
62%
Sunday
Dec 11

Rain
60 °F
50 °F
43%
58%
Monday
Dec 12

Rain
51 °F
43 °F
60%
53%
Tuesday
Dec 13

Clouds
50 °F
35 °F
0%
32%

Temperature 8-14 Day Outlook



Precipitation 8-14 Day Outlook




Quick Links
Lake Conroe News
Lake Conroe Photos
Lake Conroe Videos




About Us
Contact Us
Site Map
Search Site
Advertise With Us
   
Conroe.USLakes.info
THE LAKE CONROE WEBSITE

Copyright 2022, Lakes Online
Privacy    |    Legal